Location: Unspecified
(29.9680°N, 0.0000°E)
Time: 18:44:11
(UTC+00:00)

Vanguard 2 Rocket - Visible Passes

Search period start: 07 August 2020 00:00
Search period end: 17 August 2020 00:00
Orbit: 556 x 3324 km, 32.9° (Epoch: 07 August)

Date Brightness Start Highest point End Pass type
(mag) Time Alt. Az. Time Alt. Az. Time Alt. Az.
07 Aug 10.0 00:57:53 10° WNW 01:31:55 13° SSE 01:33:02 10° SSE visible
07 Aug 10.4 03:37:52 15° SSW 03:37:52 15° SSW 03:42:16 10° S visible
07 Aug 8.5 19:29:05 10° W 19:37:33 78° N 19:53:04 10° E visible
07 Aug 8.9 21:42:26 10° WNW 21:54:26 88° NNE 22:01:56 45° ESE visible
07 Aug 9.5 23:56:58 10° WNW 00:07:36 50° WSW 00:07:36 50° WSW visible
08 Aug 10.6 02:42:55 13° S 02:42:55 13° S 02:44:36 10° S visible
08 Aug 8.7 20:42:52 10° W 20:53:02 81° N 21:04:25 26° E visible
08 Aug 9.1 22:56:40 10° WNW 23:10:06 71° SSW 23:10:06 71° SSW visible
09 Aug 10.4 01:12:55 10° W 01:47:41 - SSE 01:15:47 17° W visible
09 Aug 8.5 19:43:32 10° W 19:52:03 77° N 20:07:02 11° E visible
09 Aug 8.8 21:56:47 10° WNW 22:08:43 82° SSW 22:12:44 61° SE visible
10 Aug 9.9 00:11:38 10° W 00:18:27 32° W 00:18:27 32° W visible
10 Aug 8.6 20:57:14 10° WNW 21:07:25 89° NNE 21:15:30 38° ESE visible
10 Aug 9.3 23:11:07 10° WNW 23:21:13 51° WSW 23:21:13 51° WSW visible
11 Aug10.802:02:21SSE02:02:21SSE01:26:56Wvisible
11 Aug 8.4 19:57:57 10° WNW 20:06:30 81° N 20:18:22 19° E visible
11 Aug 8.9 22:11:09 10° WNW 22:22:55 68° SSW 22:24:06 66° S visible
12 Aug 10.3 00:26:46 10° W 00:29:49 18° W 00:29:49 18° W visible
12 Aug 8.2 18:58:50 10° W 19:05:58 75° N 19:19:10 10° E visible
12 Aug 8.6 21:11:36 10° WNW 21:21:42 79° SSW 21:27:03 49° SE visible
12 Aug 9.7 23:25:51 10° W 23:32:47 34° WSW 23:32:47 34° WSW visible
13 Aug 8.3 20:12:19 10° WNW 20:20:52 90° SSW 20:30:07 27° ESE visible
13 Aug 9.1 22:25:40 10° W 22:35:50 52° SW 22:35:50 52° SW visible
14 Aug 8.1 19:13:14 10° WNW 19:20:24 80° NNE 19:33:14 11° E visible
14 Aug 8.7 21:25:59 10° WNW 21:35:56 64° SSW 21:38:58 55° SSE visible
14 Aug 10.1 23:41:08 10° W 23:44:43 20° WSW 23:44:43 20° WSW visible
15 Aug 8.3 20:26:39 10° WNW 20:35:09 75° SSW 20:42:10 35° ESE visible
15 Aug 9.5 22:40:30 10° W 22:47:55 35° SW 22:47:55 35° SW visible
16 Aug 8.0 19:27:35 10° WNW 19:34:45 88° SSW 19:45:27 17° ESE visible
16 Aug 9.0 21:40:34 10° W 21:50:12 48° SSW 21:51:12 47° SSW visible
